[[{"header":{"parameterUnit":"m.s-1","parameterCategory":1,"la1":30.2991,"la2":30.254,"lo1":-89.0895,"lo2":-89.0444,"dy":0.0017,"dx":0.0017,"nx":28,"ny":28,"refTime":"2023-06-25T21:00:00:Z","depth":0,"parameterNumber":2,"parameterNumberName":"U-component_of_WINDS"},"data":[0,0,0,0,0,0,0,0,0,0,0,0,0,0,0,0,0,0,0,0,0,0,0,0,0,0,0,0,0,0,0,0,0,0,0,0,0,0,0,0,0,0,0,0,0,0,0,0,0,0,0,0,0,0,0,0,0,0,5.6134,5.6135,0,5.6283,5.6284,5.6286,5.6203,5.6199,5.6195,5.6191,5.6347,5.6354,5.6362,0,0,0,0,0,0,0,0,0,0,0,0,0,5.5779,5.5786,5.6133,5.6135,5.6137,5.6282,5.6284,5.6286,5.6204,5.6199,5.6194,5.6189,5.6344,5.6354,5.6363,0,0,0,0,0,0,0,0,0,0,0,0,0,5.5931,5.5788,5.6133,5.6113,5.6113,5.6282,5.6284,5.6287,5.6205,5.6198,5.6192,5.6186,5.6341,5.6353,5.6364,5.6562,0,0,5.6401,5.6406,0,0,0,0,0,0,0,0,5.5922,5.5944,5.6114,5.6115,5.6115,5.6218,5.6216,5.6379,5.6206,5.617,5.6191,5.6183,5.6309,5.6323,5.6365,5.657,5.6576,5.6402,5.6409,5.6415,5.6418,0,0,0,0,0,0,0,5.5912,5.5937,5.6192,5.6117,5.6117,5.6097,5.6112,5.6247,5.6273,5.6173,5.6167,5.6186,5.6308,5.6354,5.6368,5.6579,5.6402,5.6413,5.642,5.6425,5.695,5.6956,0,0,0,0,0,0,5.5902,5.5929,5.6188,5.6197,5.6001,5.6109,5.6125,5.6191,5.6271,5.6277,5.6191,5.6181,5.6336,5.6354,5.6373,5.6607,5.6415,5.6426,5.6433,5.6943,5.6951,5.6959,0,0,0,0,0,0,5.5895,5.5926,5.6182,5.6061,5.6092,5.6121,5.6196,5.6197,5.6242,5.6284,5.6289,5.6232,5.6332,5.6356,5.6515,5.6612,5.6431,5.6442,5.6935,5.6946,5.6955,5.7079,0,0,0,0,0,0,5.5885,5.5924,5.5999,5.6064,5.6099,5.6321,5.6202,5.6205,5.6263,5.6252,5.6325,5.6331,5.6329,5.6497,5.6527,5.6625,5.6451,5.6927,5.694,5.6952,5.7067,5.7093,5.7115,0,0,0,0,0,5.5873,5.603,5.6004,5.6035,5.6194,5.6327,5.6347,5.6341,5.6271,5.6347,5.6373,5.6328,5.6597,5.6514,5.6547,5.665,5.6921,5.6936,5.6951,5.7056,5.7088,5.7114,0,0,0,0,0,0,5.5978,5.6038,5.601,5.6192,5.6255,5.6313,5.6408,5.6375,5.646,5.6446,5.6435,5.6453,5.6617,5.665,5.6557,5.6844,5.6748,5.677,5.6817,5.6847,5.687,5.6858,5.6461,0,0,0,0,0,5.6022,5.6125,5.6172,5.6328,5.6361,5.638,5.6437,5.6427,5.6492,5.6518,5.6556,5.6622,5.672,5.6786,5.6879,5.7071,5.7085,5.7158,5.7182,5.7202,5.7221,5.7322,5.7354,5.7009,5.7009,5.7008,0,0,5.6115,5.6161,5.6226,5.6351,5.6398,5.6504,5.6402,5.652,5.6598,5.6536,5.6687,5.6718,5.679,5.6966,5.7045,5.6998,5.7319,5.7221,5.7236,5.7245,5.7341,5.7374,5.7403,5.7019,5.7017,5.7016,0,0,5.6338,5.6384,5.6517,5.6566,5.6638,5.6649,5.6681,5.6744,5.6761,5.6912,5.6867,5.6961,5.7132,5.7184,5.7233,5.7473,5.7434,5.7504,5.7629,5.7728,5.7755,5.7779,5.7862,5.7892,5.7523,5.7524,5.7524,0,5.6444,5.6601,5.6591,5.671,5.6765,5.6713,5.6848,5.6896,5.6996,5.7035,5.6981,5.7192,5.7238,5.7423,5.7481,5.7524,5.7559,5.7495,5.7752,5.7776,5.7798,5.7877,5.7909,5.7532,5.7531,5.753,5.7529,0,5.6728,5.6837,5.6937,5.7032,5.7099,5.7226,5.7234,5.7303,5.7286,5.7303,5.7456,5.7508,5.761,5.7654,5.764,5.7837,5.7805,5.7752,5.7654,5.7839,5.7913,5.7943,5.7543,5.754,5.7538,5.7536,0,0,5.7021,5.7107,5.7143,5.7184,5.7259,5.7344,5.7468,5.7566,5.7624,5.7695,5.7797,5.7942,5.7892,5.7948,5.7939,5.8027,5.821,5.7962,5.7963,5.8004,5.8428,5.8465,5.8501,5.8185,5.8191,5.8196,5.842,0,5.7247,5.7462,5.7455,5.7655,5.7755,5.7706,5.7814,5.7871,5.789,5.7977,5.7998,5.81,5.8028,5.806,5.8145,5.817,5.8295,5.8154,5.828,5.8284,5.8261,5.854,5.8581,5.8791,5.845,5.8455,5.8458,0,5.7539,5.7616,5.7826,5.7883,5.7925,5.8022,5.8109,5.8194,5.8258,5.8265,5.8326,5.8303,5.8428,5.8328,5.85,5.8404,5.8455,5.8476,5.8484,5.8493,5.8381,5.8555,5.8858,5.8889,5.8504,5.8501,5.8497,0,5.7728,5.7885,5.803,5.8068,5.8139,5.8208,5.8241,5.8298,5.8357,5.8434,5.8471,5.8563,5.8612,5.8684,5.8685,5.8613,5.8858,5.8759,5.8866,5.8866,5.8919,5.8915,5.9232,5.8956,5.8956,5.8955,5.8954,0,5.7979,5.8109,5.8116,5.8205,5.8349,5.8339,5.8482,5.8508,5.8559,5.8652,5.8617,5.8705,5.8703,5.8793,5.8795,5.8935,5.8959,5.8967,5.8966,5.8969,5.8968,5.9001,5.8986,5.8963,5.8961,5.896,5.8958,0,5.8215,5.8225,5.8379,5.8433,5.845,5.8553,5.8599,5.8684,5.8698,5.8816,5.8843,5.8867,5.897,5.8979,5.91,5.9102,5.927,5.9255,5.9248,5.9245,5.935,5.9339,5.9698,5.9743,5.944,5.9443,5.9445,0,5.8373,5.8472,5.8535,5.8594,5.863,5.8727,5.8785,5.878,5.8842,5.892,5.8995,5.9095,5.9174,5.9341,5.9369,5.9461,5.9445,5.9565,5.9459,5.9458,5.9444,5.9437,5.9445,5.9585,5.9588,5.9591,5.9593,0,5.8653,5.8652,5.8737,5.8824,5.8894,5.8963,5.9026,5.9077,5.9079,5.9151,5.9255,5.9316,5.9438,5.9537,5.9626,5.966,5.9627,5.9626,5.9655,5.9658,5.9649,5.9653,5.9301,5.9618,5.9615,5.9613,5.9612,5.9611,5.8853,5.8937,5.8994,5.9089,5.9136,5.9196,5.9276,5.93,5.9387,5.9484,5.9476,5.9591,5.965,5.9766,5.9807,5.9896,5.9856,5.9899,5.991,5.992,5.9929,5.9637,5.9913,5.9912,5.9912,5.9911,5.9911,0,5.9128,5.9162,5.9249,5.9338,5.9413,5.9374,5.9442,5.9507,5.9608,5.9666,5.9743,5.9862,5.9957,5.9992,6.0084,6.0149,6.0136,6.0173,6.0167,6.0175,5.9961,5.9925,6.0182,6.0182,6.0182,6.0182,6.0182,6.0182,5.928,5.9418,5.9424,5.9585,5.9618,5.9729,5.977,5.9825,5.987,6.0004,6.0082,6.0103,6.0151,6.0246,6.0331,6.0339,6.0374,6.0417,6.0418,6.0218,6.019,6.0164,6.013,6.0425,6.0426,6.0624,6.0625,6.0627]},{"header":{"parameterUnit":"m.s-1","parameterCategory":1,"la1":30.2991,"la2":30.254,"lo1":-89.0895,"lo2":-89.0444,"dy":0.0017,"dx":0.0017,"nx":28,"ny":28,"refTime":"2023-06-25T21:00:00:Z","depth":0,"parameterNumber":3,"parameterNumberName":"V-component_of_WINDS"},"data":[0,0,0,0,0,0,0,0,0,0,0,0,0,0,0,0,0,0,0,0,0,0,0,0,0,0,0,0,0,0,0,0,0,0,0,0,0,0,0,0,0,0,0,0,0,0,0,0,0,0,0,0,0,0,0,0,0,0,1.9427,1.9428,0,1.9468,1.9468,1.9468,1.9422,1.9421,1.9419,1.9417,1.946,1.9462,1.9465,0,0,0,0,0,0,0,0,0,0,0,0,0,1.9311,1.9313,1.9427,1.9428,1.9428,1.9467,1.9468,1.9469,1.9423,1.9421,1.9418,1.9417,1.9459,1.9462,1.9465,0,0,0,0,0,0,0,0,0,0,0,0,0,1.9357,1.9314,1.9427,1.941,1.9409,1.9467,1.9468,1.9469,1.9423,1.9421,1.9418,1.9416,1.9458,1.9462,1.9466,1.9543,0,0,1.9478,1.948,0,0,0,0,0,0,0,0,1.9355,1.9362,1.9412,1.9411,1.941,1.9437,1.9442,1.9494,1.9424,1.9418,1.9417,1.9414,1.9454,1.9459,1.9472,1.9545,1.9547,1.9479,1.9481,1.9483,1.9484,0,0,0,0,0,0,0,1.9351,1.936,1.9443,1.9413,1.9412,1.94,1.9404,1.9452,1.945,1.9418,1.9415,1.942,1.9453,1.9468,1.9473,1.9548,1.9479,1.9482,1.9485,1.9487,1.9686,1.9688,0,0,0,0,0,0,1.935,1.9357,1.9442,1.9444,1.9375,1.9405,1.9409,1.9431,1.945,1.945,1.9422,1.9418,1.9462,1.9468,1.9474,1.9565,1.9483,1.9487,1.9489,1.9683,1.9686,1.9689,0,0,0,0,0,0,1.9348,1.9358,1.944,1.94,1.941,1.9409,1.9435,1.9433,1.9448,1.9453,1.9452,1.9438,1.9461,1.9468,1.9526,1.9566,1.9489,1.9493,1.9679,1.9684,1.9688,1.975,0,0,0,0,0,0,1.9345,1.9358,1.9387,1.9401,1.9412,1.9492,1.9437,1.9436,1.9455,1.945,1.9467,1.9468,1.9459,1.952,1.953,1.9571,1.9496,1.9676,1.9681,1.9686,1.9744,1.9755,1.9765,0,0,0,0,0,1.9341,1.9404,1.9389,1.94,1.9449,1.9495,1.9501,1.949,1.9459,1.9488,1.9491,1.9467,1.956,1.9527,1.9537,1.958,1.9673,1.968,1.9686,1.9739,1.9753,1.9765,0,0,0,0,0,0,1.9396,1.9405,1.9389,1.9458,1.9476,1.9487,1.9524,1.9505,1.9532,1.9526,1.9511,1.9515,1.9577,1.9584,1.9546,1.9655,1.9612,1.962,1.9648,1.9662,1.9672,1.9669,1.9499,0,0,0,0,0,1.9416,1.9452,1.9458,1.9519,1.9528,1.9525,1.9544,1.9534,1.9551,1.9559,1.9566,1.9584,1.9617,1.964,1.9671,1.9744,1.9747,1.9778,1.9789,1.9798,1.9806,1.9844,1.9858,1.971,1.971,1.971,0,0,1.9458,1.9467,1.9491,1.953,1.9542,1.958,1.9531,1.9573,1.9601,1.9565,1.962,1.9626,1.9645,1.9711,1.9741,1.9719,1.9847,1.9806,1.9813,1.9816,1.9852,1.9866,1.9879,1.9714,1.9713,1.9713,0,0,1.9554,1.9565,1.9616,1.9629,1.9648,1.9645,1.9657,1.967,1.9673,1.9727,1.9701,1.9733,1.9791,1.9806,1.9821,1.992,1.9899,1.993,1.9986,2.0024,2.0036,2.0046,2.0082,2.0094,1.9938,1.9938,1.9939,0,1.9604,1.966,1.9645,1.9689,1.9706,1.9674,1.9725,1.9739,1.9767,1.978,1.9755,1.9826,1.9837,1.9905,1.9929,1.9943,1.9956,1.9929,2.0035,2.0046,2.0055,2.0088,2.0102,1.9942,1.9942,1.9941,1.9941,0,1.972,1.9759,1.9798,1.9825,1.9847,1.9894,1.9887,1.991,1.9897,1.9897,1.9952,1.9964,1.9996,2.0011,2.0,2.0078,2.0064,2.0038,1.9994,2.0073,2.0104,2.0117,1.9948,1.9946,1.9945,1.9944,0,0,1.9854,1.9871,1.9885,1.9897,1.9914,1.9944,1.999,2.002,2.0041,2.0061,2.0099,2.0147,2.0122,2.014,2.0129,2.0162,2.024,2.0131,2.0131,2.0151,2.0326,2.0346,2.0362,2.0225,2.0227,2.0229,2.0324,0,1.995,2.0029,2.0016,2.0092,2.0127,2.0096,2.0136,2.0151,2.0151,2.0181,2.0181,2.0216,2.018,2.019,2.0222,2.0224,2.0275,2.0216,2.026,2.0262,2.0257,2.0378,2.04,2.0489,2.0337,2.0339,2.034,0,2.0073,2.0097,2.0176,2.0187,2.0202,2.0238,2.0264,2.0293,2.0309,2.0306,2.0325,2.0307,2.0352,2.0307,2.0368,2.0329,2.0346,2.0349,2.0352,2.0357,2.0307,2.0386,2.0518,2.0531,2.0359,2.0358,2.0356,0,2.0163,2.0214,2.0268,2.0279,2.0293,2.0319,2.0326,2.0339,2.0358,2.0381,2.0393,2.0421,2.0437,2.0459,2.045,2.0417,2.0513,2.0467,2.0512,2.0513,2.0535,2.0534,2.0672,2.0545,2.0545,2.0544,2.0544,0,2.0272,2.0322,2.0309,2.0342,2.0397,2.0381,2.0436,2.0439,2.0451,2.0484,2.0459,2.049,2.0476,2.0506,2.0499,2.0551,2.0558,2.0557,2.0555,2.056,2.056,2.0572,2.0565,2.0548,2.0547,2.0546,2.0546,0,2.0382,2.0375,2.0432,2.044,2.0443,2.0483,2.049,2.0521,2.0518,2.056,2.0569,2.0566,2.06,2.0592,2.063,2.0625,2.0691,2.068,2.0685,2.0683,2.0729,2.0725,2.088,2.0899,2.0759,2.0761,2.0762,0,2.0452,2.049,2.0501,2.0521,2.053,2.0563,2.0582,2.0567,2.0588,2.0608,2.0637,2.0669,2.0694,2.075,2.0751,2.0779,2.077,2.0822,2.0774,2.0778,2.0771,2.0769,2.0772,2.0832,2.0833,2.0835,2.0836,0,2.0578,2.0572,2.06,2.0627,2.065,2.067,2.0688,2.0706,2.0693,2.0717,2.0752,2.0771,2.0809,2.0841,2.0867,2.0874,2.0853,2.085,2.0863,2.0869,2.087,2.087,2.0712,2.0847,2.0846,2.0845,2.0845,2.0844,2.0671,2.0702,2.0715,2.0747,2.0758,2.0775,2.0804,2.0805,2.0833,2.0863,2.0852,2.0892,2.0905,2.0938,2.0948,2.0979,2.0959,2.0977,2.0981,2.0986,2.0991,2.0864,2.0983,2.0983,2.0983,2.0982,2.0982,0,2.0795,2.0801,2.0831,2.0856,2.0881,2.0857,2.0876,2.0898,2.0933,2.0947,2.0972,2.1011,2.1041,2.1044,2.1072,2.1096,2.1087,2.1104,2.1103,2.1105,2.1007,2.0994,2.1111,2.1111,2.1111,2.1111,2.1111,2.1111,2.0863,2.0915,2.0911,2.0968,2.0973,2.1012,2.1024,2.1039,2.105,2.1095,2.112,2.1121,2.113,2.1159,2.1186,2.1186,2.1198,2.1219,2.1215,2.1124,2.1111,2.1099,2.1087,2.1221,2.1221,2.1309,2.131,2.1311]}]]